Welcome to the New NWS' Forecast!
Most changes are behind the scenes, but click here for differences you might notice.

Regional Weather Roundup (RWR)

Issued by National Weather Service (NWS)

                            
202 
ASUS46 KSEW 152110
RWRWA 

WASHINGTON REGIONAL WEATHER ROUNDUP
NATIONAL WEATHER SERVICE SEATTLE WA
200 PM PDT SUN JUL 15 2018

NOTE:"FAIR" INDICATES FEW OR NO CLOUDS BELOW 12,000 FEET WITH NO 
SIGNIFICANT WEATHER AND/OR OBSTRUCTIONS TO VISIBILITY.

WAZ507-509-555>559-152200-
SEATTLE, TACOMA, EVERETT, AND VICINITY
  
CITY           SKY/WX    TMP DP  RH WIND       PRES   REMARKS
EVERETT        SUNNY     82  53  36 N8        30.02F                  
BOEING FIELD   SUNNY     86  48  26 NW9G18    29.98F                  
RENTON         SUNNY     88  54  31 NW14      29.97F                  
SEATAC AIRPORT MOSUNNY   89  52  28 NW12      30.00F                  
JBLM-MCCHORD   SUNNY     86  58  38 N12       29.99F                  
PUYALLUP       FAIR      88  55  33 VRB6G12   30.00F                  
BREMERTON      SUNNY     88  50  27 N13G21    30.00F                  
JBLM-FT LEWIS  SUNNY     88  57  35 N9        29.98F                  
TACOMA NARROWS SUNNY     84  50  30 N12G18    29.99F                  
$$
 
WAZ001-503-506-510-514-515-152200-
NORTH INTERIOR
  
CITY           SKY/WX    TMP DP  RH WIND       PRES   REMARKS
BELLINGHAM     SUNNY     81  53  37 W9        30.01F                  
FRIDAY HARBOR  SUNNY     84  46  26 N10       30.03F                  
EASTSOUND      SUNNY     68  57  68 VRB5      30.02F                  
PORT ANGELES   SUNNY     84  46  26 E7        30.03F                  
EDIZ HOOK      FAIR      74  51  44 E6        30.02F                  
PORT TOWNSEND  FAIR      82  48  30 NW10      30.01F                  
NAS WHIDBEY    MOSUNNY   74  51  44 W8        30.05F                  
ARLINGTON      SUNNY     85  57  38 W8        30.00F                  
BURLINGTON     SUNNY     79  55  44 W9        30.01F                  
$$
 
WAZ020-022-039-040-504-511-512-152200-
SOUTHWEST INTERIOR
  
CITY           SKY/WX    TMP DP  RH WIND       PRES   REMARKS
SHELTON        SUNNY     92  51  24 VRB6      29.96F                  
OLYMPIA        SUNNY     87  48  25 NE8       29.98F                  
CHEHALIS       FAIR      91  55  29 NW10      29.97F                  
KELSO          SUNNY     93  54  26 N9        29.93F HX  91           
VANCOUVER      SUNNY     92  54  27 N8        29.91F HX  90           
SCAPPOOSE, OR  SUNNY     95  51  22 N8        29.90F HX  92           
PORTLAND, OR   MOSUNNY   93  54  26 W9        29.91F HX  91           
$$
 
WAZ021-516-517-152200-
WASHINGTON COAST
  
CITY           SKY/WX    TMP DP  RH WIND       PRES   REMARKS
FORKS          SUNNY     86  51  29 W10       29.99F                  
HOQUIAM        SUNNY     79  60  52 SW13      29.99F                  
ASTORIA, OR    SUNNY     80  57  45 W10       29.97S                  
$$
 
WAZ019-023-024-040-567>569-152200-
CASCADE MOUNTAINS AND COLUMBIA GORGE
  
CITY           SKY/WX    TMP DP  RH WIND       PRES   REMARKS
STAMPEDE PASS  NOT AVBL                                               
TROUTDALE, OR  SUNNY     92  54  27 VRB7      29.91F HX  90           
HOOD RIVER, OR CLEAR     95  39  14 NE5       29.94F HAZE    HX  91   
THE DALLES, OR SUNNY    102  34   9 NE12      29.90F HX  96           
$$

WAZ026-027-041>044-520-521-152200-
EAST SLOPES
  
CITY           SKY/WX    TMP DP  RH WIND       PRES   REMARKS
OMAK           SUNNY     93  34  12 E6        30.00F                  
WENATCHEE      SUNNY     92  31  11 E6        29.98F                  
ELLENSBURG     NOT AVBL                                               
YAKIMA         SUNNY     95  35  12 S9        29.99F HX  90           
SUNNYSIDE ARPT CLEAR     92  47  21 S5        29.97F                  
YAKIMA TC        N/A     95  33  11 W7        29.98F HX  90           
$$

WAZ028-034-035-152200-
COLUMBIA BASIN
  
CITY           SKY/WX    TMP DP  RH WIND       PRES   REMARKS
EPHRATA        SUNNY     95  30  10 MISG      29.98F                  
MOSES LAKE     SUNNY     94  31  10 VRB6      30.00F                  
PASCO          SUNNY     94  46  19 N5        29.96F HX  90           
RICHLAND ARPT  CLEAR     97  32  10 NE7       29.95F HX  91           
HERMISTON, OR  PTSUNNY   99  35  10 E10       29.95F HX  93           
$$

WAZ036>038-152200-
NORTHEAST WASHINGTON
  
CITY           SKY/WX    TMP DP  RH WIND       PRES   REMARKS
SPOKANE GEIGER MOSUNNY   87  27  11 VRB3      30.07F                  
SPOKANE FELTS  SUNNY     90  25   9 NE3       30.05F                  
FAIRCHILD AFB  SUNNY     87  31  13 W3        30.07F                  
COEURDALENE,ID SUNNY     87  33  14 VRB5      30.07F                  
DEER PARK      SUNNY     89  27  10 VRB6      30.06F                  
$$

WAZ029>033-152200-
SOUTHEAST WASHINGTON
  
CITY           SKY/WX    TMP DP  RH WIND       PRES   REMARKS
PULLMAN        SUNNY     88  32  13 MISG      30.09F                  
LEWISTON, ID   SUNNY     93  35  13 CALM      30.00F                  
WALLA WALLA    MOSUNNY   95  31  10 W9        29.97F                  
PENDLETON, OR  PTSUNNY   94  27   9 NE8       29.99F                  
$$